Panama City Beach Gulf Coast Weather Center

Moon Phase Calendar



Online Cameras

 


      

Current Conditions in Panama City
1/30/2023 2:53:31 AM

67°F
Feels Like 68
Clouds
Humidity
96%
Pressure
30.09"
Wind
10.4 mph (SSE)
Dew Point
65°F
UV Index
0/10 (Low)
Visibility
6 mi

Hourly Forecast

Date & Time Mon, Jan 30
2:00 AM
Mon, Jan 30
3:00 AM
Mon, Jan 30
4:00 AM
Mon, Jan 30
5:00 AM
Mon, Jan 30
6:00 AM
Mon, Jan 30
7:00 AM
Mon, Jan 30
8:00 AM
Mon, Jan 30
9:00 AM
Mon, Jan 30
10:00 AM
Mon, Jan 30
11:00 AM
Mon, Jan 30
12:00 PM
Mon, Jan 30
1:00 PM
Mon, Jan 30
2:00 PM
Mon, Jan 30
3:00 PM
Mon, Jan 30
4:00 PM
Mon, Jan 30
5:00 PM
Mon, Jan 30
6:00 PM
Mon, Jan 30
7:00 PM
Mon, Jan 30
8:00 PM
Mon, Jan 30
9:00 PM
Mon, Jan 30
10:00 PM
Mon, Jan 30
11:00 PM
Tue, Jan 31
12:00 AM
Tue, Jan 31
1:00 AM
Tue, Jan 31
2:00 AM
Tue, Jan 31
3:00 AM
Tue, Jan 31
4:00 AM
Tue, Jan 31
5:00 AM
Tue, Jan 31
6:00 AM
Tue, Jan 31
7:00 AM
Tue, Jan 31
8:00 AM
Tue, Jan 31
9:00 AM
Tue, Jan 31
10:00 AM
Tue, Jan 31
11:00 AM
Tue, Jan 31
12:00 PM
Tue, Jan 31
1:00 PM
Tue, Jan 31
2:00 PM
Tue, Jan 31
3:00 PM
Tue, Jan 31
4:00 PM
Tue, Jan 31
5:00 PM
Tue, Jan 31
6:00 PM
Tue, Jan 31
7:00 PM
Tue, Jan 31
8:00 PM
Tue, Jan 31
9:00 PM
Tue, Jan 31
10:00 PM
Tue, Jan 31
11:00 PM
Wed, Feb 1
12:00 AM
Wed, Feb 1
1:00 AM
Condition
Rain

Clouds

Clouds

Clouds

Rain

Clouds

Clouds

Clouds

Clouds

Clouds

Clouds

Clouds

Clouds

Clouds

Clouds

Clouds

Clouds

Clouds

Clouds

Clouds

Clouds

Clouds

Clouds

Clouds

Clouds

Clouds

Clouds

Clouds

Rain

Rain

Rain

Rain

Rain

Rain

Rain

Clouds

Rain

Rain

Clouds

Clouds

Clouds

Clouds

Rain

Rain

Clouds

Rain

Clouds

Clouds
Temperature 66°F67°F66°F66°F65°F65°F66°F69°F71°F73°F74°F74°F74°F73°F71°F68°F66°F65°F65°F64°F64°F64°F64°F64°F63°F63°F63°F63°F63°F64°F66°F66°F66°F66°F66°F69°F71°F70°F70°F67°F66°F65°F65°F64°F64°F64°F63°F63°F
Feels Like 67°F68°F67°F67°F66°F66°F67°F70°F72°F74°F74°F75°F74°F73°F72°F69°F67°F66°F66°F65°F65°F65°F64°F64°F64°F64°F64°F64°F64°F64°F66°F67°F66°F66°F67°F70°F72°F71°F70°F68°F66°F66°F66°F65°F65°F64°F64°F64°F
Cloudiness 90%100%90%81%71%63%54%53%49%45%42%24%27%29%31%32%33%45%44%44%44%43%48%87%64%60%68%70%68%62%73%82%86%88%90%86%71%65%60%54%49%63%78%86%89%91%93%100%
Visibility 2 mi2 mi2 mi2 mi2 mi2 mi2 mi6 mi6 mi6 mi6 mi6 mi6 mi6 mi6 mi6 mi6 mi6 mi6 mi6 mi6 mi6 mi6 mi6 mi6 mi6 mi6 mi6 mi6 mi6 mi5 mi4 mi2 mi2 mi3 mi6 mi5 mi4 mi6 mi6 mi3 mi2 mi2 mi3 mi2 mi5 mi6 mi6 mi
Precipitation 81%80%79%70%62%32%24%12%8%7%3%0%0%0%0%0%0%0%0%0%0%0%0%0%2%2%2%8%34%46%54%56%58%58%60%55%58%61%61%61%53%47%49%53%49%43%42%3%
Humidity 97%96%97%97%98%99%97%92%86%81%78%76%76%78%81%90%96%97%98%97%97%97%97%98%98%98%98%99%99%99%96%97%98%98%97%91%85%86%88%94%98%98%98%98%99%99%99%99%
Dew Point 65°F65°F65°F65°F65°F65°F66°F67°F67°F66°F66°F65°F65°F65°F65°F65°F65°F64°F64°F64°F63°F63°F63°F63°F63°F63°F63°F63°F63°F63°F65°F65°F65°F65°F65°F66°F66°F66°F66°F66°F65°F65°F64°F64°F63°F63°F63°F63°F
Pressure 30.09"30.09"30.09"30.09"30.12"30.15"30.18"30.18"30.18"30.18"30.15"30.12"30.12"30.12"30.12"30.15"30.15"30.15"30.15"30.18"30.18"30.18"30.15"30.15"30.15"30.15"30.15"30.15"30.18"30.18"30.21"30.21"30.21"30.21"30.18"30.15"30.12"30.12"30.12"30.12"30.15"30.15"30.18"30.18"30.18"30.18"30.15"30.15"
Wind Speed 5.6 mph5 mph4.4 mph3.7 mph3.1 mph2.2 mph2 mph3.1 mph4.4 mph5 mph5.8 mph6.4 mph6.4 mph5.8 mph5.1 mph3.7 mph3.3 mph2.8 mph1.9 mph0.3 mph0.8 mph1.4 mph1.5 mph2.1 mph2.2 mph1.7 mph1.4 mph1.6 mph1.6 mph1.7 mph1.9 mph2.6 mph3.3 mph3 mph3.7 mph5.6 mph7 mph6.8 mph6.1 mph4.8 mph4.1 mph4.2 mph3.5 mph2.2 mph0.9 mph0.8 mph0.5 mph0.8 mph
Wind
Direction
192°
SSW
190°
S
197°
SSW
203°
SSW
227°
SW
233°
SW
253°
WSW
232°
SW
229°
SW
240°
WSW
247°
WSW
242°
WSW
247°
WSW
250°
WSW
251°
WSW
246°
WSW
237°
WSW
226°
SW
220°
SW
170°
S
72°
ENE
80°
E
98°
E
126°
SE
124°
SE
122°
ESE
108°
ESE
109°
ESE
120°
ESE
121°
ESE
138°
SE
139°
SE
143°
SE
161°
SSE
178°
S
197°
SSW
206°
SSW
211°
SSW
203°
SSW
199°
SSW
209°
SSW
207°
SSW
230°
SW
259°
W
273°
W
308°
NW
19°
NNE
47°
NE

Daily Forecast

Date High Low Precip. Humidity
Today
Jan 30

Rain
74 °F
64 °F
100%
81%
Tuesday
Jan 31

Rain
71 °F
63 °F
61%
98%
Wednesday
Feb 1

Clouds
72 °F
62 °F
42%
80%
Thursday
Feb 2

Rain
72 °F
64 °F
100%
82%
Friday
Feb 3

Rain
65 °F
53 °F
100%
55%
Saturday
Feb 4

Clear
65 °F
47 °F
0%
50%
Sunday
Feb 5

Rain
68 °F
52 °F
24%
68%
Monday
Feb 6

Clear
64 °F
51 °F
0%
42%
Tuesday
Feb 7

Clouds
65 °F
50 °F
0%
54%
Wednesday
Feb 8

Clouds
70 °F
59 °F
1%
58%
Thursday
Feb 9

Clear
72 °F
59 °F
2%
60%
Friday
Feb 10

Rain
73 °F
62 °F
20%
68%
Saturday
Feb 11

Rain
73 °F
65 °F
61%
83%
Sunday
Feb 12

Clouds
74 °F
64 °F
0%
76%
Monday
Feb 13

Clouds
75 °F
64 °F
0%
69%
Tuesday
Feb 14

Clouds
74 °F
63 °F
0%
71%

Temperature 8-14 Day Outlook



Precipitation 8-14 Day Outlook




Quick Links
Panama City Beach Gulf Coast News
Panama City Beach Gulf Coast Photos
Panama City Beach Gulf Coast Videos




About Us
Contact Us
Site Map
Search Site
Advertise With Us
   
PanamaCity.USGulf.info
THE PANAMA CITY BEACH GULF COAST WEBSITE

Copyright 2023, Coastal Town
Privacy    |    Legal